Погода в Заволжье

Россия / Нижегородская область     56°38′25″N   43°23′13″E
темп.,
°C
ветер,
м/с
пор.,
м/с
влажн.,
%
обл.,
%
осадки,
мм/ч
давл.,
гПа
погр.,
м
10 апреля, сб
сб1000:00−4ю11940 0.0 102810
03:00−4юв22950 0.0 102923
06:00−5ююв23937 0.0 103050
09:00+2ююв35866 0.0 1030169
12:00+4юв34865 0.0 1029235
15:00+4юв33825 0.0 1028203
18:00+2юв22934 0.0 102835
21:00−1ююв229714 0.0 102834
11 апреля, вс
вс1100:00−3ююв11979 0.0 102812
03:00−4ю11963 0.0 102812
06:00−3ююв23935 0.0 102953
09:00+4ю24760 0.0 1030167
12:00+7юз24650 0.0 1030467
15:00+9юз23645 0.0 1031463
18:00+6ююв2283100 0.0 103229
21:00+2ююв2287100 0.0 103414
12 апреля, пн
пн1200:00+2ююв2288100 0.0 103516
03:00+1в2289100 0.0 103512
06:00+2вюв2487100 0.0 103659
09:00+6вюв3679100 0.0 1036215
12:00+9вюв4765100 0.0 1035481
15:00+9вюв4864100 0.0 1034383
18:00+8в51071100 0.0 1033276
21:00+6вюв41087100 0.0 1033252
13 апреля, вт
вт1300:00+5вюв4997100 0.0 1032199
03:00+4вюв4897100 0.0 1031138
06:00+5юв3796100 0.0 1030115
09:00+9ююв477992 0.0 1029201
12:00+14ююв5853100 0.0 1027586
15:00+15ю474462 0.0 1026939
18:00+13ююв355845 0.0 102560
21:00+9ююв367134 0.0 102680
14 апреля, ср
ср1400:00+7ю37780 0.0 102698
03:00+7ююв34795 0.0 102563
06:00+7ююв34819 0.0 102564
09:00+11ююв4764100 0.0 1025199
12:00+15ююв474715 0.0 1024548
15:00+17ююв4741100 0.0 1022926
18:00+14юв4854100 0.0 1021169
21:00+10ююв3668100 0.0 102194